Hourly Data Report for July 17, 2015

KELOWNA UBCO
BRITISH COLUMBIA

49°56'26.700" N
119°24'00.760" W
456.00 m
1123996
71644
VKU

Download Data

Hourly Data (July 2015)
Hourly Data Report for July 17, 2015
TIME
LST
Temp Definition
°C
Dew Point Definition
°C
Rel Hum Definition
%
Precip. Amount Definition
mm

Wind Dir Definition
10's deg

Wind Spd Definition
km/h
Visibility Definition
km
Stn Press Definition
kPa
Hmdx Definition


Wind Chill Definition


Weather Definition


00:00 14.0 5.8 58 0.0       96.50     LegendNANA
01:00 13.7 4.7 55 0.0       96.52     LegendNANA
02:00 11.5 5.3 65 0.0       96.51     LegendNANA
03:00 10.6 5.0 68 0.0       96.51     LegendNANA
04:00 10.2 4.9 69 0.0       96.52     LegendNANA
05:00 10.4 5.3 71 0.0       96.54     LegendNANA
06:00 14.2 6.9 61 0.0       96.58     LegendNANA
07:00 18.3 5.2 42 0.0       96.59     LegendNANA
08:00 20.6 4.4 34 0.0       96.60     LegendNANA
09:00 22.7 3.9 29 0.0       96.56     LegendNANA
10:00 23.2 3.3 27 0.0       96.51     LegendNANA
11:00 25.1 3.1 24 0.0       96.46     LegendNANA
12:00 25.8 3.2 23 0.0       96.42 25   LegendNANA
13:00 26.7 3.2 22 0.0       96.38 25   LegendNANA
14:00 27.7 3.2 21 0.0       96.35 26   LegendNANA
15:00 27.6 3.1 21 0.0       96.32 26   LegendNANA
16:00 28.0 3.5 21 0.0       96.29 27   LegendNANA
17:00 28.1 3.3 20 0.0       96.26 27   LegendNANA
18:00 26.9 3.4 22 0.0       96.27 26   LegendNANA
19:00 26.8 3.2 22 0.0       96.26 26   LegendNANA
20:00 24.3 4.4 28 0.0       96.28     LegendNANA
21:00 21.8 4.8 33 0.0       96.33     LegendNANA
22:00 18.5 6.3 45 0.0       96.34     LegendNANA
23:00 17.0 5.9 48 0.0       96.34     LegendNANA

Notes on Data Quality.

Legend

  • E = Estimated
  • M = Missing
  • NA = Not Available*
  • [empty] = Indicates an unobserved value
Date modified: